Time,TemperatureF,DewpointF,PressureIn,WindDirection,WindDirectionDegrees,WindSpeedMPH,WindSpeedGustMPH,Humidity,HourlyPrecipIn,Conditions,Clouds,dailyrainin,SoftwareType,DateUTC
2013-05-14 00:02:00,65.0,41.0,-100.00,WSW,252,8.0,-999.0,42,-99.99,,,-99.99,,2013-05-14 05:02:00,
2013-05-14 00:12:00,64.0,42.0,-100.00,WSW,247,9.0,-999.0,44,-99.99,,,-99.99,,2013-05-14 05:12:00,
2013-05-14 00:22:00,64.0,42.0,-100.00,WSW,248,9.0,-999.0,45,-99.99,,,-99.99,,2013-05-14 05:22:00,
2013-05-14 00:32:00,63.0,43.0,-100.00,WSW,246,7.0,-999.0,48,-99.99,,,-99.99,,2013-05-14 05:32:00,
2013-05-14 00:42:00,63.0,42.0,-100.00,WSW,247,5.0,-999.0,47,-99.99,,,-99.99,,2013-05-14 05:42:00,
2013-05-14 00:52:00,63.0,42.0,-100.00,SW,236,7.0,-999.0,45,-99.99,,,-99.99,,2013-05-14 05:52:00,
2013-05-14 01:01:00,63.0,42.0,-100.00,SW,223,6.0,-999.0,45,-99.99,,,-99.99,,2013-05-14 06:01:00,
2013-05-14 01:12:00,63.0,41.0,-100.00,SW,226,7.0,-999.0,45,-99.99,,,-99.99,,2013-05-14 06:12:00,
2013-05-14 01:22:00,62.0,42.0,-100.00,SW,235,7.0,-999.0,47,-99.99,,,-99.99,,2013-05-14 06:22:00,
2013-05-14 01:32:00,64.0,41.0,-100.00,WSW,244,6.0,-999.0,43,-99.99,,,-99.99,,2013-05-14 06:32:00,
2013-05-14 01:42:00,61.0,42.0,-100.00,SW,219,8.0,-999.0,50,-99.99,,,-99.99,,2013-05-14 06:42:00,
2013-05-14 01:51:00,62.0,42.0,-100.00,SW,214,6.0,-999.0,47,-99.99,,,-99.99,,2013-05-14 06:51:00,
2013-05-14 02:02:00,63.0,41.0,-100.00,SSW,213,6.0,-999.0,44,-99.99,,,-99.99,,2013-05-14 07:02:00,
2013-05-14 02:11:00,63.0,40.0,-100.00,SSW,212,5.0,-999.0,43,-99.99,,,-99.99,,2013-05-14 07:11:00,
2013-05-14 02:21:00,63.0,42.0,-100.00,SSW,209,7.0,-999.0,46,-99.99,,,-99.99,,2013-05-14 07:21:00,
2013-05-14 02:32:00,60.0,42.0,-100.00,SSW,201,7.0,-999.0,52,-99.99,,,-99.99,,2013-05-14 07:32:00,
2013-05-14 02:42:00,60.0,41.0,-100.00,South,186,7.0,-999.0,50,-99.99,,,-99.99,,2013-05-14 07:42:00,
2013-05-14 02:52:00,62.0,41.0,-100.00,South,185,8.0,-999.0,46,-99.99,,,-99.99,,2013-05-14 07:52:00,
2013-05-14 03:02:00,59.0,41.0,-100.00,South,184,9.0,-999.0,51,-99.99,,,-99.99,,2013-05-14 08:02:00,
2013-05-14 03:11:00,57.0,41.0,-100.00,South,180,11.0,-999.0,56,-99.99,,,-99.99,,2013-05-14 08:11:00,
2013-05-14 03:21:00,58.0,42.0,-100.00,South,190,12.0,-999.0,55,-99.99,,,-99.99,,2013-05-14 08:21:00,
2013-05-14 03:32:00,57.0,41.0,-100.00,South,188,11.0,-999.0,55,-99.99,,,-99.99,,2013-05-14 08:32:00,
2013-05-14 03:42:00,58.0,41.0,-100.00,South,178,10.0,-999.0,53,-99.99,,,-99.99,,2013-05-14 08:42:00,
2013-05-14 03:52:00,58.0,41.0,-100.00,South,185,11.0,-999.0,53,-99.99,,,-99.99,,2013-05-14 08:52:00,
2013-05-14 04:02:00,57.0,41.0,-100.00,South,170,10.0,-999.0,56,-99.99,,,-99.99,,2013-05-14 09:02:00,
2013-05-14 04:11:00,56.0,41.0,-100.00,South,173,12.0,-999.0,57,-99.99,,,-99.99,,2013-05-14 09:11:00,
2013-05-14 04:22:00,56.0,42.0,-100.00,South,170,12.0,-999.0,58,-99.99,,,-99.99,,2013-05-14 09:22:00,
2013-05-14 04:32:00,56.0,42.0,-100.00,South,169,12.0,-999.0,58,-99.99,,,-99.99,,2013-05-14 09:32:00,
2013-05-14 04:44:00,56.0,42.0,-100.00,SSE,159,10.0,-999.0,58,-99.99,,,-99.99,,2013-05-14 09:44:00,
2013-05-14 04:54:00,57.0,42.0,-100.00,SE,141,10.0,-999.0,58,-99.99,,,-99.99,,2013-05-14 09:54:00,
2013-05-14 05:04:00,56.0,42.0,-100.00,SSE,149,10.0,-999.0,59,-99.99,,,-99.99,,2013-05-14 10:04:00,
2013-05-14 05:14:00,56.0,41.0,-100.00,SSE,162,11.0,-999.0,56,-99.99,,,-99.99,,2013-05-14 10:14:00,
2013-05-14 05:25:00,57.0,41.0,-100.00,South,182,8.0,-999.0,56,-99.99,,,-99.99,,2013-05-14 10:25:00,
2013-05-14 05:33:00,57.0,42.0,-100.00,South,176,9.0,-999.0,57,-99.99,,,-99.99,,2013-05-14 10:33:00,
2013-05-14 05:42:00,57.0,42.0,-100.00,SSE,147,7.0,-999.0,58,-99.99,,,-99.99,,2013-05-14 10:42:00,
2013-05-14 05:52:00,58.0,42.0,-100.00,SE,129,5.0,-999.0,55,-99.99,,,-99.99,,2013-05-14 10:52:00,
2013-05-14 06:02:00,57.0,42.0,-100.00,East,89,3.0,-999.0,57,-99.99,,,-99.99,,2013-05-14 11:02:00,
2013-05-14 06:11:00,59.0,41.0,-100.00,SE,124,5.0,-999.0,52,-99.99,,,-99.99,,2013-05-14 11:11:00,
2013-05-14 06:22:00,60.0,42.0,-100.00,ESE,118,9.0,-999.0,53,-99.99,,,-99.99,,2013-05-14 11:22:00,
2013-05-14 06:32:00,60.0,43.0,-100.00,SW,221,8.0,-999.0,54,-99.99,,,-99.99,,2013-05-14 11:32:00,
2013-05-14 06:43:00,57.0,46.0,-100.00,SE,138,12.0,-999.0,67,-99.99,,,-99.99,,2013-05-14 11:43:00,
2013-05-14 06:52:00,58.0,46.0,-100.00,SSE,151,21.0,-999.0,65,-99.99,,,-99.99,,2013-05-14 11:52:00,
2013-05-14 07:03:00,59.0,46.0,-100.00,SSE,154,20.0,-999.0,63,-99.99,,,-99.99,,2013-05-14 12:03:00,
2013-05-14 07:12:00,59.0,47.0,-100.00,SE,138,17.0,-999.0,66,-99.99,,,-99.99,,2013-05-14 12:12:00,
2013-05-14 07:21:00,60.0,47.0,-100.00,SE,136,13.0,-999.0,63,-99.99,,,-99.99,,2013-05-14 12:21:00,
2013-05-14 07:32:00,60.0,47.0,-100.00,SE,146,12.0,-999.0,61,-99.99,,,-99.99,,2013-05-14 12:32:00,
2013-05-14 07:42:00,61.0,47.0,-100.00,SSE,149,9.0,-999.0,60,-99.99,,,-99.99,,2013-05-14 12:42:00,
2013-05-14 07:52:00,62.0,47.0,-100.00,SSE,154,4.0,-999.0,58,-99.99,,,-99.99,,2013-05-14 12:52:00,
2013-05-14 08:01:00,62.0,47.0,-100.00,ESE,118,8.0,-999.0,56,-99.99,,,-99.99,,2013-05-14 13:01:00,
2013-05-14 08:11:00,62.0,46.0,-100.00,SE,141,18.0,-999.0,56,-99.99,,,-99.99,,2013-05-14 13:11:00,
2013-05-14 08:22:00,66.0,44.0,-100.00,North,11,6.0,-999.0,46,-99.99,,,-99.99,,2013-05-14 13:22:00,
2013-05-14 08:32:00,66.0,44.0,-100.00,North,11,6.0,-999.0,46,-99.99,,,-99.99,,2013-05-14 13:32:00,
2013-05-14 08:41:00,63.0,50.0,-100.00,North,10,28.0,-999.0,61,-99.99,,,-99.99,,2013-05-14 13:41:00,
2013-05-14 08:52:00,62.0,53.0,-100.00,North,11,24.0,-999.0,71,-99.99,,,-99.99,,2013-05-14 13:52:00,
2013-05-14 09:01:00,62.0,53.0,-100.00,NNE,29,22.0,-999.0,73,-99.99,,,-99.99,,2013-05-14 14:01:00,
2013-05-14 09:11:00,62.0,52.0,-100.00,NE,39,23.0,-999.0,69,-99.99,,,-99.99,,2013-05-14 14:11:00,
2013-05-14 09:22:00,63.0,51.0,-100.00,NE,42,22.0,-999.0,65,-99.99,,,-99.99,,2013-05-14 14:22:00,
2013-05-14 09:32:00,65.0,52.0,-100.00,North,0,17.0,-999.0,63,-99.99,,,-99.99,,2013-05-14 14:32:00,
2013-05-14 09:41:00,66.0,51.0,-100.00,North,0,22.0,-999.0,58,-99.99,,,-99.99,,2013-05-14 14:41:00,
2013-05-14 09:52:00,67.0,50.0,-100.00,NE,36,18.0,-999.0,53,-99.99,,,-99.99,,2013-05-14 14:52:00,
2013-05-14 10:01:00,69.0,50.0,-100.00,NNE,15,17.0,-999.0,51,-99.99,,,-99.99,,2013-05-14 15:01:00,
2013-05-14 10:12:00,70.0,48.0,-100.00,NNE,24,14.0,-999.0,47,-99.99,,,-99.99,,2013-05-14 15:12:00,
2013-05-14 10:22:00,71.0,48.0,-100.00,North,11,11.0,-999.0,45,-99.99,,,-99.99,,2013-05-14 15:22:00,
2013-05-14 10:33:00,72.0,49.0,-100.00,ENE,60,9.0,-999.0,44,-99.99,,,-99.99,,2013-05-14 15:33:00,
2013-05-14 10:43:00,73.0,50.0,-100.00,NNW,344,5.0,-999.0,45,-99.99,,,-99.99,,2013-05-14 15:43:00,
2013-05-14 10:53:00,73.0,48.0,-100.00,NNE,30,5.0,-999.0,41,-99.99,,,-99.99,,2013-05-14 15:53:00,
2013-05-14 11:02:00,73.0,48.0,-100.00,NNE,30,5.0,-999.0,41,-99.99,,,-99.99,,2013-05-14 16:02:00,
2013-05-14 11:12:00,76.0,46.0,-100.00,NE,56,2.0,-999.0,35,-99.99,,,-99.99,,2013-05-14 16:12:00,
2013-05-14 11:23:00,77.0,45.0,-100.00,ESE,119,1.0,-999.0,32,-99.99,,,-99.99,,2013-05-14 16:23:00,
2013-05-14 11:33:00,77.0,43.0,-100.00,SE,146,-999.0,-999.0,30,-99.99,,,-99.99,,2013-05-14 16:33:00,
2013-05-14 11:43:00,80.0,46.0,-100.00,ESE,118,2.0,-999.0,31,-99.99,,,-99.99,,2013-05-14 16:43:00,
2013-05-14 11:54:00,79.0,45.0,-100.00,WNW,303,6.0,-999.0,30,-99.99,,,-99.99,,2013-05-14 16:54:00,
2013-05-14 12:03:00,79.0,45.0,-100.00,West,271,5.0,-999.0,31,-99.99,,,-99.99,,2013-05-14 17:03:00,
2013-05-14 12:13:00,80.0,46.0,-100.00,West,274,6.0,-999.0,31,-99.99,,,-99.99,,2013-05-14 17:13:00,
2013-05-14 12:24:00,81.0,45.0,-100.00,WSW,252,10.0,-999.0,29,-99.99,,,-99.99,,2013-05-14 17:24:00,
2013-05-14 12:33:00,81.0,46.0,-100.00,WSW,239,12.0,-999.0,30,-99.99,,,-99.99,,2013-05-14 17:33:00,
2013-05-14 12:43:00,81.0,45.0,-100.00,West,263,10.0,-999.0,28,-99.99,,,-99.99,,2013-05-14 17:43:00,
2013-05-14 12:52:00,82.0,45.0,-100.00,WNW,292,16.0,-999.0,27,-99.99,,,-99.99,,2013-05-14 17:52:00,
2013-05-14 13:02:00,83.0,45.0,-100.00,West,278,12.0,-999.0,27,-99.99,,,-99.99,,2013-05-14 18:02:00,
2013-05-14 13:12:00,83.0,45.0,-100.00,West,278,17.0,-999.0,26,-99.99,,,-99.99,,2013-05-14 18:12:00,
2013-05-14 13:22:00,85.0,47.0,-100.00,West,259,16.0,-999.0,27,-99.99,,,-99.99,,2013-05-14 18:22:00,
2013-05-14 13:32:00,84.0,46.0,-100.00,West,281,24.0,-999.0,26,-99.99,,,-99.99,,2013-05-14 18:32:00,
2013-05-14 13:42:00,84.0,46.0,-100.00,WNW,284,24.0,-999.0,26,-99.99,,,-99.99,,2013-05-14 18:42:00,
2013-05-14 13:52:00,85.0,47.0,-100.00,WNW,288,19.0,-999.0,26,-99.99,,,-99.99,,2013-05-14 18:52:00,
2013-05-14 14:01:00,85.0,45.0,-100.00,WNW,298,15.0,-999.0,25,-99.99,,,-99.99,,2013-05-14 19:01:00,
2013-05-14 14:12:00,86.0,46.0,-100.00,West,274,25.0,-999.0,25,-99.99,,,-99.99,,2013-05-14 19:12:00,
2013-05-14 14:22:00,86.0,45.0,-100.00,WNW,302,24.0,-999.0,24,-99.99,,,-99.99,,2013-05-14 19:22:00,
2013-05-14 14:32:00,86.0,46.0,-100.00,WNW,282,29.0,-999.0,25,-99.99,,,-99.99,,2013-05-14 19:32:00,
2013-05-14 14:42:00,85.0,45.0,-100.00,NW,306,28.0,-999.0,25,-99.99,,,-99.99,,2013-05-14 19:42:00,
2013-05-14 14:52:00,85.0,38.0,-100.00,WNW,282,28.0,-999.0,19,-99.99,,,-99.99,,2013-05-14 19:52:00,
2013-05-14 15:02:00,84.0,42.0,-100.00,NW,306,26.0,-999.0,23,-99.99,,,-99.99,,2013-05-14 20:02:00,
2013-05-14 15:11:00,84.0,44.0,-100.00,West,278,23.0,-999.0,24,-99.99,,,-99.99,,2013-05-14 20:11:00,
2013-05-14 15:23:00,85.0,45.0,-100.00,West,279,24.0,-999.0,25,-99.99,,,-99.99,,2013-05-14 20:23:00,
2013-05-14 15:33:00,83.0,35.0,-100.00,NW,307,36.0,-999.0,18,-99.99,,,-99.99,,2013-05-14 20:33:00,
2013-05-14 15:44:00,83.0,32.0,-100.00,WNW,301,32.0,-999.0,16,-99.99,,,-99.99,,2013-05-14 20:44:00,
2013-05-14 15:52:00,82.0,30.0,-100.00,West,281,32.0,-999.0,15,-99.99,,,-99.99,,2013-05-14 20:52:00,
2013-05-14 16:03:00,82.0,30.0,-100.00,WNW,291,20.0,-999.0,15,-99.99,,,-99.99,,2013-05-14 21:03:00,
2013-05-14 16:12:00,82.0,26.0,-100.00,West,280,32.0,-999.0,13,-99.99,,,-99.99,,2013-05-14 21:12:00,
2013-05-14 16:23:00,82.0,25.0,-100.00,WNW,296,36.0,-999.0,12,-99.99,,,-99.99,,2013-05-14 21:23:00,
2013-05-14 16:33:00,83.0,25.0,-100.00,West,276,27.0,-999.0,12,-99.99,,,-99.99,,2013-05-14 21:33:00,
2013-05-14 16:52:00,81.0,27.0,-100.00,West,271,28.0,-999.0,14,-99.99,,,-99.99,,2013-05-14 21:52:00,
2013-05-14 17:03:00,81.0,29.0,-100.00,WNW,291,36.0,-999.0,15,-99.99,,,-99.99,,2013-05-14 22:03:00,
2013-05-14 17:13:00,82.0,30.0,-100.00,West,280,29.0,-999.0,15,-99.99,,,-99.99,,2013-05-14 22:13:00,
2013-05-14 17:24:00,82.0,28.0,-100.00,WNW,300,33.0,-999.0,14,-99.99,,,-99.99,,2013-05-14 22:24:00,
2013-05-14 17:34:00,81.0,31.0,-100.00,WNW,297,36.0,-999.0,16,-99.99,,,-99.99,,2013-05-14 22:34:00,
2013-05-14 17:45:00,81.0,32.0,-100.00,WNW,301,36.0,-999.0,17,-99.99,,,-99.99,,2013-05-14 22:45:00,
2013-05-14 17:54:00,80.0,32.0,-100.00,WNW,301,33.0,-999.0,17,-99.99,,,-99.99,,2013-05-14 22:54:00,
2013-05-14 18:03:00,80.0,32.0,-100.00,WNW,301,33.0,-999.0,17,-99.99,,,-99.99,,2013-05-14 23:03:00,
2013-05-14 18:12:00,79.0,32.0,-100.00,WNW,290,32.0,-999.0,18,-99.99,,,-99.99,,2013-05-14 23:12:00,
2013-05-14 18:21:00,80.0,34.0,-100.00,WNW,285,31.0,-999.0,19,-99.99,,,-99.99,,2013-05-14 23:21:00,
2013-05-14 18:32:00,79.0,35.0,-100.00,WNW,297,40.0,-999.0,20,-99.99,,,-99.99,,2013-05-14 23:32:00,
2013-05-14 18:44:00,78.0,36.0,-100.00,NW,308,37.0,-999.0,22,-99.99,,,-99.99,,2013-05-14 23:44:00,
2013-05-14 18:52:00,77.0,35.0,-100.00,NW,309,43.0,-999.0,22,-99.99,,,-99.99,,2013-05-14 23:52:00,
2013-05-14 19:02:00,76.0,39.0,-100.00,NW,322,31.0,-999.0,26,-99.99,,,-99.99,,2013-05-15 00:02:00,
2013-05-14 19:11:00,76.0,40.0,-100.00,NW,321,38.0,-999.0,27,-99.99,,,-99.99,,2013-05-15 00:11:00,
2013-05-14 19:21:00,75.0,40.0,-100.00,NW,320,28.0,-999.0,29,-99.99,,,-99.99,,2013-05-15 00:21:00,
2013-05-14 19:32:00,74.0,41.0,-100.00,NW,309,29.0,-999.0,30,-99.99,,,-99.99,,2013-05-15 00:32:00,
2013-05-14 19:42:00,74.0,41.0,-100.00,NW,309,29.0,-999.0,30,-99.99,,,-99.99,,2013-05-15 00:42:00,
2013-05-14 19:51:00,73.0,42.0,-100.00,NW,321,36.0,-999.0,33,-99.99,,,-99.99,,2013-05-15 00:51:00,
2013-05-14 20:01:00,71.0,42.0,-100.00,NW,320,37.0,-999.0,36,-99.99,,,-99.99,,2013-05-15 01:01:00,
2013-05-14 20:11:00,70.0,42.0,-100.00,NW,326,38.0,-999.0,36,-99.99,,,-99.99,,2013-05-15 01:11:00,
2013-05-14 20:21:00,69.0,43.0,-100.00,NNW,327,32.0,-999.0,38,-99.99,,,-99.99,,2013-05-15 01:21:00,
2013-05-14 20:32:00,69.0,42.0,-100.00,NNW,329,32.0,-999.0,38,-99.99,,,-99.99,,2013-05-15 01:32:00,
2013-05-14 20:42:00,68.0,42.0,-100.00,NW,311,23.0,-999.0,40,-99.99,,,-99.99,,2013-05-15 01:42:00,
2013-05-14 20:52:00,67.0,42.0,-100.00,NW,320,26.0,-999.0,40,-99.99,,,-99.99,,2013-05-15 01:52:00,
2013-05-14 21:02:00,66.0,42.0,-100.00,NNW,327,22.0,-999.0,41,-99.99,,,-99.99,,2013-05-15 02:02:00,
2013-05-14 21:11:00,66.0,42.0,-100.00,NNW,328,28.0,-999.0,42,-99.99,,,-99.99,,2013-05-15 02:11:00,
2013-05-14 21:21:00,65.0,42.0,-100.00,NW,318,30.0,-999.0,44,-99.99,,,-99.99,,2013-05-15 02:21:00,
2013-05-14 21:32:00,64.0,42.0,-100.00,NW,319,26.0,-999.0,44,-99.99,,,-99.99,,2013-05-15 02:32:00,
2013-05-14 21:42:00,63.0,42.0,-100.00,NW,321,24.0,-999.0,45,-99.99,,,-99.99,,2013-05-15 02:42:00,
2013-05-14 21:52:00,63.0,42.0,-100.00,NW,320,21.0,-999.0,47,-99.99,,,-99.99,,2013-05-15 02:52:00,
2013-05-14 22:01:00,62.0,42.0,-100.00,NW,326,14.0,-999.0,47,-99.99,,,-99.99,,2013-05-15 03:01:00,
2013-05-14 22:12:00,62.0,41.0,-100.00,NNW,330,15.0,-999.0,47,-99.99,,,-99.99,,2013-05-15 03:12:00,
2013-05-14 22:22:00,62.0,41.0,-100.00,NW,317,15.0,-999.0,46,-99.99,,,-99.99,,2013-05-15 03:22:00,
2013-05-14 22:33:00,62.0,41.0,-100.00,NW,323,13.0,-999.0,46,-99.99,,,-99.99,,2013-05-15 03:33:00,
2013-05-14 22:44:00,61.0,41.0,-100.00,WNW,298,13.0,-999.0,48,-99.99,,,-99.99,,2013-05-15 03:44:00,
2013-05-14 22:54:00,61.0,41.0,-100.00,WNW,301,9.0,-999.0,48,-99.99,,,-99.99,,2013-05-15 03:54:00,
2013-05-14 23:03:00,60.0,42.0,-100.00,NW,310,13.0,-999.0,51,-99.99,,,-99.99,,2013-05-15 04:03:00,
2013-05-14 23:12:00,60.0,42.0,-100.00,WNW,297,10.0,-999.0,52,-99.99,,,-99.99,,2013-05-15 04:12:00,
2013-05-14 23:24:00,59.0,42.0,-100.00,WNW,302,11.0,-999.0,53,-99.99,,,-99.99,,2013-05-15 04:24:00,
2013-05-14 23:33:00,59.0,42.0,-100.00,WNW,289,11.0,-999.0,53,-99.99,,,-99.99,,2013-05-15 04:33:00,
2013-05-14 23:42:00,59.0,43.0,-100.00,West,280,8.0,-999.0,55,-99.99,,,-99.99,,2013-05-15 04:42:00,
2013-05-14 23:52:00,59.0,42.0,-100.00,WNW,291,11.0,-999.0,54,-99.99,,,-99.99,,2013-05-15 04:52:00,